Regional Weather Roundup
Issued by NWS

Home | Current Version | Previous Version | Text Only | Print | Product List | Glossary Off
Versions: 1 2 3 4 5 6 7 8 9 10 11 12 13 14 15 16 17 18 19 20 21 22 23 24 25 26 27 28 29 30 31 32 33 34 35 36 37 38 39 40 41 42 43 44 45 46 47 48 49 50

000
ASUS43 KDMX 200401
RWRIA

WEATHER ROUNDUP FOR IOWA
NATIONAL WEATHER SERVICE DES MOINES IA
1000 PM CST SUN NOV 19 2017

NOTE: "FAIR" INDICATES FEW OR NO CLOUDS BELOW 12,000 FEET WITH NO
SIGNIFICANT WEATHER AND/OR OBSTRUCTIONS TO VISIBILITY.

* - THESE STATIONS ARE NOT NWS STATIONS...THUS NOT UNDER NWS
QUALITY CONTROL.  THEY ALSO DO NOT REPORT WEATHER SUCH
AS PRECIPITATION OR FOG.

IAZ001>003-012>014-020>022-031>034-043>046-200500-
   NORTHWEST IOWA

CITY           SKY/WX    TMP DP  RH WIND       PRES   REMARKS
CARROLL *      CLOUDY    39  27  60 SW15      29.90F WCI  31
DENISON *      CLOUDY    39  27  60 S9        29.92S WCI  33
LE MARS *      CLOUDY    39  27  60 S6        29.85F WCI  35
ORANGE CITY *  CLOUDY    36  27  69 S9        29.84F WCI  29
SHELDON *      PTCLDY    36  25  64 S8        29.82F WCI  29
SIOUX CITY     CLOUDY    32  25  75 E9        29.87F WCI  24
SPENCER        CLOUDY    34  26  72 S8        29.84F WCI  27
STORM LAKE *   CLOUDY    34  27  75 S9        29.87F WCI  26
$$

IAZ055>058-069>071-079>083-090>094-200500-
   SOUTHWEST IOWA

CITY           SKY/WX    TMP DP  RH WIND       PRES   REMARKS
ATLANTIC *     CLOUDY    32  27  80 S7        29.94F WCI  26
AUDUBON *      CLOUDY    41  27  56 S9        29.93F
CLARINDA *       N/A     34  27  75 S5        29.99S WCI  30
COUNCIL BLFS * PTCLDY    45  27  49 SW13      29.93S
CRESTON *      CLEAR     34  28  80 S10       29.98F WCI  26
HARLAN  *      CLOUDY    34  27  75 CALM      29.95F
LAMONI         CLEAR     35  26  69 S10       30.00F WCI  27
RED OAK *      CLEAR     37  27  65 S6        29.96S WCI  33
SHENANDOAH *   CLEAR     37  25  60 SW6       29.96F WCI  33
$$

IAZ047>049-059>061-072>074-084-200500-
   CENTRAL IOWA

CITY           SKY/WX    TMP DP  RH WIND       PRES   REMARKS
AMES           CLOUDY    36  29  75 S7        29.94F WCI  30
ANKENY *       CLOUDY    39  28  65 S7        29.98S WCI  34
BOONE *        CLOUDY    39  28  65 S10       29.92F WCI  32
CHARITON *     CLOUDY    37  28  70 S12       30.00S WCI  30
DES MOINES     CLOUDY    39  27  62 S12       29.97F WCI  32
GRINNELL*      CLOUDY    35  27  72 S12       30.00S WCI  27
KNOXVILLE *    CLOUDY    37  27  65 S13G18    29.98F WCI  29
MARSHALLTOWN   CLOUDY    38  27  64 S15       29.95F WCI  29
NEWTON *       CLOUDY    36  28  75 S10       29.98F WCI  28
PELLA *        CLOUDY    37  27  69 S7        30.01F WCI  31
PERRY *          N/A     32  29  88 S9        29.93F WCI  25
$$

IAZ004>006-015-016-023>025-035-036-200500-
   NORTH CENTRAL IOWA

CITY           SKY/WX    TMP DP  RH WIND       PRES   REMARKS
ALGONA *       CLOUDY    36  32  87 S13       29.86F WCI  27
CLARION *      CLOUDY    36  32  87 S14       29.89F WCI  27
ESTHERVILLE    CLOUDY    32  27  81 S10       29.83F WCI  24
FORT DODGE *   CLOUDY    38  28  67 S10       29.90F WCI  31
MASON CITY     CLOUDY    36  27  69 S15       29.89F WCI  27
FOREST CITY *    N/A     36  30  80 S7        29.87F WCI  30
WEBSTER CITY * CLOUDY    36  28  75 S10G17    29.89F WCI  28
IOWA FALLS *     N/A     38  29  70 S13       29.93F WCI  30
$$

IAZ007>011-017>019-026>030-037>042-050>054-066-200500-
   NORTHEAST IOWA

CITY           SKY/WX    TMP DP  RH WIND       PRES   REMARKS
CEDAR RAPIDS   CLOUDY    32  25  75 S10       29.99F WCI  24
CHARLES CITY * CLOUDY    32  28  86 S9        29.92F WCI  24
CLINTON *      CLOUDY    29  23  78 SW9       30.05F WCI  20
DECORAH *      CLOUDY    36  27  69 SW9G18    29.91F WCI  29
DUBUQUE        CLOUDY    27  22  81 S10       29.99F WCI  17
MONTICELLO *   CLOUDY    32  25  74 S6        30.00F WCI  26
OELWEIN *      CLOUDY    32  28  86 S9        29.96F WCI  24
WATERLOO       CLOUDY    35  25  66 S12       29.94F WCI  27
$$

IAZ064-065-067-068-078-200500-
   EAST CENTRAL IOWA

CITY           SKY/WX    TMP DP  RH WIND       PRES   REMARKS
DAVENPORT      CLOUDY    34  23  64 SW10      30.06F WCI  26
IOWA CITY      CLOUDY    31  23  72 S3        30.04F
MT. PLEASANT * CLOUDY    32  25  74 S10       30.06F WCI  24
MUSCATINE *    CLOUDY    34  25  69 S7        30.06F WCI  28
QUAD CITIES    CLOUDY    35  23  61 SW12      30.05F WCI  27
$$

IAZ062-063-075>077-085>089-095>099-200500-
   SOUTHEAST IOWA

CITY           SKY/WX    TMP DP  RH WIND       PRES   REMARKS
BURLINGTON     CLOUDY    34  25  69 S9        30.07F WCI  27
FAIRFIELD *    PTCLDY    36  25  64 S9        30.03F WCI  29
FORT MADISON * CLOUDY    36  27  69 S12       30.08F WCI  27
KEOKUK *       CLOUDY    37  25  60 S13       30.07F WCI  29
OSKALOOSA *      N/A     33  28  80 S8        30.02S WCI  26
OTTUMWA        CLOUDY    37  26  64 S12       30.02F WCI  29
WASHINGTON *   CLOUDY    34  27  75 S10       30.05F WCI  26
$$

ABBREVIATIONS USED IN REMARKS
   TC - TEMPERATURES IN CELSIUS
  WCI - WIND CHILL INDEX
   HX - HEAT INDEX
  VSB - VISIBILITY
$$





USA.gov is the U.S. government's official web portal to all federal, state and local government web resources and services.